TimeCDT,TemperatureF,Dew PointF,Humidity,Sea Level PressureIn,VisibilityMPH,Wind Direction,Wind SpeedMPH,Gust SpeedMPH,PrecipitationIn,Events,Conditions,WindDirDegrees,DateUTC
12:54 AM,59.0,51.1,75,30.15,10.0,ENE,4.6,-,N/A,,Clear,70,2012-09-10 05:54:00
1:54 AM,59.0,50.0,72,30.15,10.0,East,4.6,-,N/A,,Clear,80,2012-09-10 06:54:00
2:54 AM,57.0,50.0,77,30.15,10.0,ENE,3.5,-,N/A,,Clear,70,2012-09-10 07:54:00
3:54 AM,57.0,50.0,77,30.16,10.0,East,5.8,-,N/A,,Clear,80,2012-09-10 08:54:00
4:54 AM,55.9,50.0,80,30.16,10.0,East,4.6,-,N/A,,Clear,80,2012-09-10 09:54:00
5:54 AM,55.0,50.0,83,30.17,10.0,East,4.6,-,N/A,,Clear,90,2012-09-10 10:54:00
6:54 AM,55.0,50.0,83,30.19,10.0,ESE,4.6,-,N/A,,Clear,110,2012-09-10 11:54:00
7:54 AM,59.0,52.0,78,30.21,10.0,ESE,3.5,-,N/A,,Clear,120,2012-09-10 12:54:00
8:54 AM,64.0,53.1,67,30.21,10.0,SSE,4.6,-,N/A,,Clear,150,2012-09-10 13:54:00
9:54 AM,69.1,54.0,58,30.21,10.0,SSE,6.9,-,N/A,,Clear,160,2012-09-10 14:54:00
10:54 AM,72.0,51.1,48,30.21,10.0,SSE,9.2,-,N/A,,Clear,150,2012-09-10 15:54:00
11:54 AM,73.9,51.1,45,30.20,10.0,SW,9.2,-,N/A,,Clear,220,2012-09-10 16:54:00
12:54 PM,75.9,51.1,42,30.17,10.0,ESE,8.1,-,N/A,,Clear,120,2012-09-10 17:54:00
1:54 PM,78.1,51.1,39,30.14,10.0,ESE,9.2,18.4,N/A,,Clear,120,2012-09-10 18:54:00
2:54 PM,79.0,51.1,38,30.12,10.0,SE,11.5,-,N/A,,Clear,140,2012-09-10 19:54:00
3:54 PM,79.0,51.1,38,30.10,10.0,SE,10.4,-,N/A,,Clear,140,2012-09-10 20:54:00
4:54 PM,80.1,52.0,38,30.09,10.0,South,9.2,16.1,N/A,,Clear,190,2012-09-10 21:54:00
5:54 PM,79.0,51.1,38,30.08,10.0,South,9.2,-,N/A,,Clear,170,2012-09-10 22:54:00
6:54 PM,75.0,55.0,50,30.08,10.0,SSE,5.8,-,N/A,,Clear,160,2012-09-10 23:54:00
7:54 PM,72.0,52.0,49,30.07,10.0,SE,5.8,-,N/A,,Clear,140,2012-09-11 00:54:00
8:54 PM,66.9,53.1,61,30.08,10.0,SE,6.9,-,N/A,,Clear,140,2012-09-11 01:54:00
9:54 PM,64.9,53.1,65,30.08,10.0,SSE,5.8,-,N/A,,Clear,150,2012-09-11 02:54:00
10:54 PM,63.0,53.1,70,30.08,10.0,SSE,6.9,-,N/A,,Clear,150,2012-09-11 03:54:00
11:54 PM,61.0,54.0,78,30.08,10.0,SSE,8.1,-,N/A,,Clear,150,2012-09-11 04:54:00